Location: Beutels
(47.8767°N, 9.8584°E)
Time: 13:34:39
(UTC+00:00)

ISS - Pass Details

Date: 22 January 2026
Orbit: 413 x 429 km, 51.6° (Epoch: 11 February)

Event Time Altitude Azimuth Distance (km) Brightness Sun altitude
Rises 16:49:18 0° 276° (W) 2,359 1.3 -7.5°
Reaches altitude 10° 16:51:27 10° 284° (WNW) 1,499 0.0 -7.8°
Maximum altitude 16:54:41 42° 357° (N) 612 -3.1 -8.4°
Enters shadow 16:57:34 12° 68° (ENE) 1,372 -1.8 -8.8°
